COSMOS 2569 (703K)

Last updated on Wed Oct 29 2025 00:02:35 GMT+0000 (Coordinated Universal Time)

1 57517U 23114A 25300.97125313 .00000043 00000+0 00000+0 0 9992 2 57517 65.1707 80.4598 0008978 288.3269 71.5746 2.13103912 17311
UTC large
Height (km)
Speed (km/s)
/
Latitude / Longitude
Inclination (degrees)
Orbital Period (minutes)
Azimuth
Elevation
Range (km)
Doppler Factor

Next 0 passes for location: London (51.5072 / 0.1276)

Sorry there are no passes over London.